Monterey, Australia

3:24 AM AEDT on January 24, 2018 (GMT +1100)
Monterey

Weather History for 94767 - October, 2013

Change the Weather History Date:

Saturday, October 26, 2013

  Actual Average Record
Temperature  
Mean Temperature 62 °F -  
Max Temperature 70 °F 75 °F - ()
Min Temperature 55 °F 59 °F - ()
Degree Days  
Heating Degree Days 2    
Growing Degree Days 12 (Base 50)    
Moisture  
Dew Point 43 °F    
Average Humidity 45    
Maximum Humidity 72    
Minimum Humidity 20    
Precipitation  
Precipitation 0.00 in 0.13 in - ()
Sea Level Pressure  
Sea Level Pressure 30.13 in    
Wind  
Wind Speed 11 mph ()    
Max Wind Speed 20 mph    
Max Gust Speed 26 mph    
Visibility 9.7 miles    
Events      
T = Trace of Precipitation, MM = Missing Value Source: Averaged Metar Reports

Daily Weather History Graph

Daily Weather History Graph

Search for Another Location

Airport or City:

Trip Planner

Search our weather history database for the weather conditions in past years. The results will help you decide how hot, cold, wet, or windy it might be!

Date:

Astronomy

Oct. 26, 2013 Rise Set
Actual Time 6:01 AM AEDT 7:17 PM AEDT
Civil Twilight 5:35 AM AEDT 7:43 PM AEDT
Nautical Twilight 5:04 AM AEDT 8:15 PM AEDT
Astronomical Twilight 4:31 AM AEDT 8:47 PM AEDT
Moon 12:38 AM AEDT (10/26) 11:22 AM AEDT (10/26)
Length of Visible Light 14h 08m
Length of Day
13h 16m
Waning Gibbous, 59% of the Moon is Illuminated
Oct 26
Waning Gibbous
Oct 27
Last Quarter
Nov 3
New
Nov 10
First Quarter
Nov 18
Full

Hourly Weather History & Observations

Time (AEDT) Temp. Dew Point Humidity Pressure Visibility Wind Dir Wind Speed Gust Speed Precip Events Conditions
12:00 AM 60 °F 50 °F 61% 30.13 in 19 mi WSW 6.9 mph - -   Smoke
12:00 AM 60.8 °F 50.0 °F 68% 30.12 in - WSW 6.9 mph - N/A   Clear
12:30 AM 60.8 °F 50.0 °F 68% 30.12 in - SW 9.2 mph - N/A   Clear
1:00 AM 59 °F 49 °F 62% 30.12 in - SW 9.2 mph - -  
1:00 AM 59.0 °F 50.0 °F 72% 30.12 in - SW 9.2 mph - N/A   Clear
1:30 AM 59.0 °F 46.4 °F 63% 30.09 in - SW 9.2 mph - N/A   Clear
2:00 AM 61 °F 43 °F 39% 30.11 in - SW 12.7 mph - -  
2:00 AM 60.8 °F 42.8 °F 52% 30.09 in - SW 12.7 mph - N/A   Clear
2:30 AM 59.0 °F 39.2 °F 48% 30.09 in - SW 15.0 mph - N/A   Clear
3:00 AM 58 °F 35 °F 31% 30.12 in 19 mi SW 12.7 mph - -   Smoke
3:00 AM 59.0 °F 35.6 °F 42% 30.09 in - SW 12.7 mph - N/A   Clear
3:30 AM 57.2 °F 37.4 °F 48% 30.09 in - WSW 10.4 mph - N/A   Clear
4:00 AM 57 °F 37 °F 35% 30.10 in - West 9.2 mph - -  
4:00 AM 57.2 °F 37.4 °F 48% 30.09 in - West 9.2 mph - N/A   Clear
4:30 AM 57.2 °F 41.0 °F 55% 30.09 in - West 6.9 mph - N/A   Clear
5:00 AM 56 °F 38 °F 39% 30.10 in - West 9.2 mph - -  
5:00 AM 55.4 °F 37.4 °F 51% 30.09 in - West 9.2 mph - N/A   Clear
5:30 AM 57.2 °F 37.4 °F 48% 30.09 in - West 9.2 mph - N/A   Clear
6:00 AM 55 °F 37 °F 39% 30.11 in 19 mi West 8.1 mph - -   Partly Cloudy
6:00 AM 55.4 °F 37.4 °F 51% 30.09 in - WSW 8.1 mph - N/A   Clear
6:30 AM 57.2 °F 35.6 °F 44% 30.09 in - West 11.5 mph - N/A   Clear
7:00 AM 58 °F 35 °F 29% 30.12 in - WSW 15.0 mph - -  
7:00 AM 57.2 °F 33.8 °F 41% 30.09 in - WSW 15.0 mph - N/A   Clear
7:30 AM 60.8 °F 32.0 °F 34% 30.12 in - WSW 18.4 mph - N/A   Clear
8:00 AM 61 °F 31 °F 21% 30.14 in - WSW 18.4 mph - -  
8:00 AM 60.8 °F 30.2 °F 31% 30.12 in - WSW 18.4 mph - N/A   Clear
8:30 AM 62.6 °F 32.0 °F 32% 30.12 in - WSW 19.6 mph - N/A   Clear
9:00 AM 63 °F 32 °F 20% 30.15 in 25 mi WSW 19.6 mph - -   Partly Cloudy
9:00 AM 62.6 °F 32.0 °F 32% 30.15 in - WSW 19.6 mph - N/A   Clear
9:30 AM 64.4 °F 35.6 °F 34% 30.15 in - WSW 16.1 mph - N/A   Clear
10:00 AM 65 °F 37 °F 24% 30.17 in - SW 15.0 mph - -  
10:00 AM 66.2 °F 37.4 °F 35% 30.15 in - SW 15.0 mph - N/A   Clear
10:30 AM 64.4 °F 42.8 °F 45% 30.15 in - SW 12.7 mph - N/A   Clear
11:00 AM 67 °F 49 °F 41% 30.16 in - SSW 13.8 mph - -  
11:00 AM 66.2 °F 48.2 °F 52% 30.15 in 6.2 mi SSW 13.8 mph - N/A   Mostly Cloudy
11:30 AM 66.2 °F 48.2 °F 52% 30.15 in 6.2 mi South 13.8 mph 26.5 mph N/A   Scattered Clouds
12:00 PM 68 °F 48 °F 38% 30.16 in 25 mi South 18.4 mph - -   Partly Cloudy
12:00 PM 68.0 °F 48.2 °F 49% 30.15 in 6.2 mi South 18.4 mph - N/A   Partly Cloudy
12:30 PM 66.2 °F 50.0 °F 56% 30.12 in 6.2 mi South 19.6 mph - N/A   Partly Cloudy
1:00 PM 67 °F 49 °F 41% 30.13 in - South 17.3 mph - -  
1:00 PM 68.0 °F 48.2 °F 49% 30.12 in 6.2 mi South 17.3 mph - N/A   Partly Cloudy
1:30 PM 69.8 °F 48.2 °F 46% 30.12 in 6.2 mi SSE 16.1 mph - N/A   Partly Cloudy
2:00 PM 70 °F 47 °F 32% 30.12 in - SSE 16.1 mph - -  
2:00 PM 69.8 °F 46.4 °F 43% 30.09 in 6.2 mi SSE 16.1 mph - N/A   Partly Cloudy
2:30 PM 69.8 °F 46.4 °F 43% 30.09 in 6.2 mi SE 17.3 mph - N/A   Partly Cloudy
3:00 PM 70 °F 46 °F 30% 30.10 in 19 mi SE 17.3 mph - -   Partly Cloudy
3:00 PM 69.8 °F 46.4 °F 43% 30.09 in 6.2 mi SE 17.3 mph - N/A   Partly Cloudy
3:30 PM 69.8 °F 46.4 °F 43% 30.09 in 6.2 mi SE 16.1 mph - N/A   Partly Cloudy
4:00 PM 69 °F 46 °F 32% 30.10 in - SE 17.3 mph - -  
4:00 PM 69.8 °F 46.4 °F 43% 30.09 in 6.2 mi SE 17.3 mph - N/A   Partly Cloudy
4:30 PM 68.0 °F 44.6 °F 43% 30.09 in - SE 16.1 mph - N/A   Clear
5:00 PM 68 °F 45 °F 33% 30.11 in - SE 16.1 mph - -  
5:00 PM 68.0 °F 44.6 °F 43% 30.09 in - SE 16.1 mph - N/A   Clear
5:30 PM 68.0 °F 46.4 °F 46% 30.09 in - ESE 12.7 mph - N/A   Clear
6:00 PM 67 °F 46 °F 35% 30.12 in 19 mi ESE 12.7 mph - -   Partly Cloudy
6:00 PM 66.2 °F 46.4 °F 49% 30.09 in - ESE 12.7 mph - N/A   Clear
6:30 PM 66.2 °F 46.4 °F 49% 30.12 in - East 12.7 mph - N/A   Clear
7:00 PM 65 °F 46 °F 40% 30.14 in - East 12.7 mph - -  
7:00 PM 64.4 °F 46.4 °F 52% 30.12 in - East 12.7 mph - N/A   Clear
7:30 PM 64.4 °F 46.4 °F 52% 30.15 in - East 11.5 mph - N/A   Clear
8:00 PM 64 °F 47 °F 43% 30.17 in - East 9.2 mph - -  
8:00 PM 64.4 °F 46.4 °F 52% 30.15 in 6.2 mi East 9.2 mph - N/A   Partly Cloudy
8:30 PM 62.6 °F 48.2 °F 59% 30.15 in - East 10.4 mph - N/A   Clear
9:00 PM 63 °F 48 °F 47% 30.20 in 19 mi East 8.1 mph - -   Partly Cloudy
9:00 PM 62.6 °F 48.2 °F 59% 30.18 in - East 8.1 mph - N/A   Clear
9:30 PM 62.6 °F 48.2 °F 59% 30.18 in - ESE 9.2 mph - N/A   Clear
10:00 PM 63 °F 47 °F 46% 30.21 in - East 9.2 mph - -  
10:00 PM 62.6 °F 48.2 °F 59% 30.18 in 6.2 mi East 9.2 mph - N/A   Partly Cloudy
10:30 PM 62.6 °F 48.2 °F 59% 30.21 in 6.2 mi East 9.2 mph - N/A   Partly Cloudy
11:00 PM 62 °F 49 °F 51% 30.22 in - East 10.4 mph - -  
11:00 PM 62.6 °F 48.2 °F 59% 30.21 in 6.2 mi East 10.4 mph - N/A   Partly Cloudy
11:30 PM 62.6 °F 48.2 °F 59% 30.21 in 6.2 mi East 6.9 mph - N/A   Scattered Clouds